Overview Statistics Trail Chart Weather Telemetry Raw packets
 

This is the latest recevied weather packets stored in our database for station/object OK1FET-4. If no packets are shown the sender has not sent any weather packets the latest 10 day(s).

<< 7 8 9 10 11 12 13 >>
Time Temp. Humidity Pressure Rain* Wind** Luminosity Snow
1788602243 19.44° C 65% 1020.6 hPa - - - -
1788601942 18.89° C 72% 1020.4 hPa - - - -
1788601641 19.44° C 69% 1020.8 hPa - - - -
1788601341 19.44° C 73% 1020.8 hPa - - - -
1788601040 18.33° C 68% 1020.5 hPa - - - -
1788600739 18.89° C 68% 1020.7 hPa - - - -
1788600438 18.89° C 69% 1020.8 hPa - - - -
1788600137 17.78° C 71% 1020.7 hPa - - - -
1788599837 18.89° C 72% 1020.8 hPa - - - -
1788599536 18.33° C 72% 1020.8 hPa - - - -
1788599235 17.78° C 70% 1020.7 hPa - - - -
1788598935 18.33° C 68% 1020.4 hPa - - - -
1788598634 18.33° C 75% 1020.5 hPa - - - -
1788598333 17.78° C 72% 1020.4 hPa - - - -
1788598032 17.78° C 76% 1020.5 hPa - - - -
1788597732 17.22° C 93% 1020.6 hPa - - - -
1788597431 17.22° C 88% 1020.7 hPa - - - -
1788597130 17.22° C 100% 1020.8 hPa - - - -
1788596829 16.67° C 91% 1020.8 hPa - - - -
1788596529 16.67° C 89% 1020.4 hPa - - - -
1788596228 16.67° C 100% 1020.7 hPa - - - -
1788595927 16.11° C 100% 1020.6 hPa - - - -
1788595627 16.11° C 100% 1020.7 hPa - - - -
1788595326 16.11° C 100% 1020.4 hPa - - - -
1788595026 16.11° C 100% 1020.4 hPa - - - -

* Rain since midnight (hover to see other rain measurements)
** Current wind speed in m/s (hover to see current wind gust speed)